Погода Маресале

Погода Маресале : погода сейчас, прогноз погоды и архив. Всё, что Вы хотите узнать о погоде Маресале!

Хотите узнать прогноз погоды Маресале? Тогда Вам сюда: Погода Маресале

Поиск расширенной информации на нашем сайте:

Другие новости

Новости СМИ2

Главная страница сайта

Новости сайта

02.10.2013

Напоминаем, что на нашем новом сайте вы можете получить высокодетализированные прогнозы погоды по пунктам России, СНГ и мира (включающие важные для авиации метеовеличины, такие как направление и скорость ветра, видимость, явления погоды, количество и форма облачности, нижняя и верхняя граница облачности), а также ознакомиться с разнообразными материалами по авиационной метеорологии и подборкой полезных ссылок на эту тему.

Сайт Метеоцентр.Азия посвящён разработке технологий оптимизации авиаметеорологического обслуживания, включая проектирование и перспективное создание нескольких автоматизированных авиаметеорологических систем:
- система выпуска высокодетальных прогностических карт явлений погоды для нижнего воздушного пространства по России и ближнему зарубежью;
- система верификации прогнозов TAF (выпускаемых синоптиками официальных АМСГ РФ и ближнего зарубежья) и AUTOTAF (выпускаемых сайтом Метеоцентр.Азия) - выявление ошибок, онлайн-сопоставление с фактической погодой METAR, автоматическое внесение коррективов в прогнозы при резком отклонении фактической погоды от прогноза, подсчёт оправдываемости прогнозов по элементам и в целом;
- система обработки, анализа и отображения авиаметеорологической информации для применения провайдерами метеорологической информации.

Рекомендуем: Очень заманчивое предложение:. Частотный преобразователь 5.5 кВт - широкий выбор!

Погода Маресале - сегодня

Время (UTC), дата Ветер
(°,м/с) 
Видим.   Явления Облачность Т
(°С)
Тd
(°С)
f(%) Тe
(°С)
Pmin
(гПа)
dP
(гПа)
Po
(мм)
O2
(г/м3)
Тmin Tmax R s Состояние
почвы
15 17.02.17 280 (З) 8-11{13}  10 км  позёмок{ливн. осадки}  10/10 840 м 
[Sc]
-12.1 -14.1 85 -19  983.4  0.5  735  311    -9.1  0.0     
18 17.02.17 280 (З) 12-16{17}  1000 м  метель  10/10 700 м 
[Sc]
-14.2 -15.8 88 -23  984.2  0.8  736  314           
21 17.02.17 280 (З) 12-16{17}  1000 м  слаб. ливневой снег  10/10 300 м кучево-дожд. 
[Cb cap]
-13.9 -14.9 92 -23  985  0.8  736  314           
00 18.02.17 290 (З) 10-14{17}  2000 м  слаб. ливневой снег  10/10 210 м кучево-дожд. 
[Cb cap]
-13.1 -14.1 92 -21  987.4  2.4  738  314           
09 18.02.17 310 (СЗ) 2{13}  10 км    10/4 600 м средняя 
[Sc|Ac trans]
-18.6 -20 89 -21  995.4  2.6  744  323           
12 18.02.17 320 (СЗ) 10 км    6/4 600 м верхняя 
[Sc|Ci fib]
-20.6 -22 89 -23  996.9  1.5  745  326           
15 18.02.17 360 (С) 10 км    3/3 600 м 
[Sc]
-22.7 -24.5 85 -27  997.3  0.3  745  329    -14.5       
18 18.02.17 060 (СВ) 10 км    3/3 600 м 
[Sc]
-27.7 -30 81 -33  997.5  0.2  746  336           
21 18.02.17 080 (В) 10 км    3/3 600 м 
[Sc]
-26.4 -28.6 82 -32  997.2  -0.3  745  334           
03 19.02.17 060 (СВ) 10 км  позёмок  10/6 600 м средняя 
[Sc|Ac trans]
-24.9 -26.9 83 -32  995.4  -0.9  744  332  -27.7      неравномерный
сухой снег
100% 
09 19.02.17 060 (СВ) 4000 м  слаб. снег  10/3 200 м средняя 
[Frnb|As op]
-21.4 -23 87 -30  993.9  -0.6  743  326           
12 19.02.17 060 (СВ) 8{11}  2000 м  слаб. снег  10/4 200 м средняя 
[Frnb|As op]
-20.6 -22.1 88 -29  993.1  -0.8  742  325           
18 19.02.17 050 (СВ) 2000 м  снег  10/5 200 м средняя 
[Frnb|As op]
-20.2 -21.6 89 -27  991.5  -0.8  741  324           
21 19.02.17 030 (СВ) 2000 м  снег  10/5 200 м средняя 
[Frnb|As op]
-21.7 -23.3 87 -29  991.1  -0.4  741  326           
00 20.02.17 020 (С) 2000 м  снег  10/5 200 м средняя 
[Frnb|As op]
-20.4 -21.9 88 -28  990  -1.1  740  324           
03 20.02.17 010 (С) 2000 м  снег  10/5 200 м средняя 
[Frnb|As op]
-20 -21.5 88 -27  989.6  -0.4  740  323  -21.7    0.9  неравномерный
сухой снег
100% 
09 20.02.17 300 (СЗ) 4000 м  слаб. снег  10/4 200 м средняя 
[Frnb|As op]
-20.5 -22 88 -21  989.7  0.5  740  324           
12 20.02.17 260 (З) 10 км  {снег}  6/0 средняя 
[Ac trans]
-21.5 -23.1 87 -26  990.2  0.5  740  325           
15 20.02.17 220 (ЮЗ) 10 км    3/3 600 м 
[Sc]
-23.1 -25 84 -26  990.4  0.2  740  328    -20  0.4     
18 20.02.17 220 (ЮЗ) 10 км    3/3 600 м 
[Sc]
-23.4 -25.3 84 -28  990.7  0.2  740  328           
21 20.02.17 210 (ЮЗ) 10 км    3/3 600 м 
[Sc]
-23.5 -25.3 85 -28  990.8  0.2  741  328           
00 21.02.17 200 (Ю) 10 км    3/3 600 м 
-24.4 -26.3 84 -29  990.6  -0.3  740  329           
06 21.02.17 200 (Ю) 10 км    3/3 600 м 
[Sc]
-24 -25.9 84 -29  990.9  0.2  741  329           
09 21.02.17 220 (ЮЗ) 10 км    3/3 600 м 
[Sc]
-22.9 -24.7 85 -26  991.4  0.5  741  328           
12 21.02.17 220 (ЮЗ) 10 км    1/1 600 м 
[Sc]
-23.6 -25.5 84 -27  993.2  1.8  742  329           
Время (UTC), дата Ветер
(°,м/с) 
Видим.   Явления Облачность Т
(°С)
Тd
(°С)
f(%) Тe
(°С)
Pmin
(гПа)
dP
(гПа)
Po
(мм)
O2
(г/м3)
Тmin Tmax R s Состояние
почвы

Для получения пояснительной информации подведите курсор к названию столбца.

ПОГОДА Маресале - архив

Всё, что Вы хотите узнать о погоде Маресале - удобно и подробно!

Выберите нужную дату (начиная с 1 января 2015* года) и нажмите кнопку "Найти".
Будут отображены архивные сводки погоды по пункту Маресале, начиная с указанной даты.


Отображать данные в формате CSV (для использования в таблицах Excel)


Внимание! Наш архив погоды предназначен исключительно для личного некоммерческого использования в познавательных целях. Если Вам необходимы официальные справки о состоянии погоды (для производственных, юридических, коммерческих и т.п. целей), обращайтесь в органы Росгидромета.

*Примечание: данная дата относится к архиву по метеостанциям СССР (Россия, СНГ, Балтия).
Архив по метеостанциям Зарубежной Европы и Азии (кроме Китая) хранится 10 дней, по другим регионам земного шара (Китай, Африка, Америка, Австралия, Океания) - 1 день.

Маресале - район местоположения метеостанции


Название, широта, долгота, высота метеостанции:
Маресале 69.7°ш. 66.8°д. 25 м над ур. моря [Российская Федерация]

Дополнительная информация

В oтличие oт бoльшинства пoгoдных сайтoв мы публикуем пoдрoбную метеoинфoрмацию в детальнoм прoфессиoнальнoм фoрмате.

Характеристики температуры и влажнoсти вoздуха измеряются на высoте 2 м в тени вдали oт зданий и деревьев.
Скoрoсть ветра измеряется на высoте 10 м (на урoвне рoста челoвека скoрoсть ветра ниже в 1.5-2 раза). Если метеoстанция нахoдится в гoрoде или в лесу, тo скoрoсть ветра занижена на 2-4 м/с пo сравнению с oткрытым местoм. Скoрoсть ветра над акватoриями крупных рек и oзёр, а также на вершинах хoлмoв на 2-5 м/с выше, чем в oбычных услoвиях.
Атмoсфернoе давление в разных тoчках местнoсти мoжет значительнo oтличаться oт давления на метеoстанции, в зависимoсти oт услoвий рельефа (при пoдъёме на 10 м давление пoнижается примернo на 1 мм рт.ст.).